軌道要素
Epoch 2020 Dec. 17.0 TT = JDT 2459200.5
T 2020 Dec. 25.70620 TT Rudenko
q 1.8488420 (2000.0) P Q
n 0.13427246 Peri. 84.64899 +0.38004698 -0.92438252
a 3.7769806 Node 342.90061 +0.79817878 +0.34570966
e 0.5104973 Incl. 6.42100 +0.46741302 +0.16125070
P 7.34
From 169 observations 2020 Sept. 17-2021 Jan. 21, mean residual 0".5.
|